Tracking 19792 objects as of 16-Jul-2019
HD Live streaming from Space Station
objects crossing your sky now

RADCAL

Track RADCAL now!
10-day predictions
RADCAL is classified as:


NORAD ID: 22698
Int'l Code: 1993-041A
Perigee: 756.8 km
Apogee: 885.3 km
Inclination: 89.6 °
Period: 101.2 minutes
Semi major axis: 7192 km
RCS: 0.589 m2 (medium)
Launch date: June 25, 1993
Source: United States (US)
Launch site: AIR FORCE WESTERN TEST RANGE (AFWTR)

This spacecraft was used to help calibrate radar target cross section data.
aabbcc
Your satellite tracking list
Your tracking list is empty




NASA's NSSDC Master Catalog

Two Line Element Set (TLE):
1 22698U 93041A   19197.06837834  .00000037  00000-0  10161-4 0  9993
2 22698  89.5684 195.4079 0089321 170.9137 189.3699 14.23400164352779
Source of the keplerian elements: AFSPC